This is the latest recevied weather packets stored in our database for station/object KD2DXJ. If no packets are shown the sender has not sent any weather packets the latest 10 day(s).
| Time | Temp. | Humidity | Pressure | Rain* | Wind** | Luminosity | Snow |
|---|---|---|---|---|---|---|---|
| 1778137812 | 5° C | 80% | 1009 hPa | 0 mm | - | 0 W/m² | - |
| 1778137510 | 5° C | 83% | 1009 hPa | 0 mm | - | 0 W/m² | - |
| 1778137207 | 5° C | 81% | 1008.9 hPa | 0 mm | - | 0 W/m² | - |
| 1778136903 | 5° C | 81% | 1009 hPa | 0 mm | - | 0 W/m² | - |
| 1778136600 | 5° C | 81% | 1008.7 hPa | 0 mm | - | 0 W/m² | - |
| 1778136298 | 5° C | 82% | 1008.9 hPa | 0 mm | - | 0 W/m² | - |
| 1778135996 | 5° C | 82% | 1009.1 hPa | 0 mm | - | 0 W/m² | - |
| 1778135693 | 5° C | 80% | 1008.7 hPa | 0 mm | - | 0 W/m² | - |
| 1778135390 | 5.56° C | 81% | 1008.5 hPa | 0 mm | - | 0 W/m² | - |
| 1778135087 | 5.56° C | 85% | 1008.7 hPa | 0 mm | - | 0 W/m² | - |
| 1778134784 | 5.56° C | 88% | 1008.7 hPa | 0 mm | - | 0 W/m² | - |
| 1778134482 | 5.56° C | 90% | 1008.8 hPa | 0 mm | - | 0 W/m² | - |
| 1778134180 | 6.11° C | 91% | 1009.1 hPa | 0 mm | - | 0 W/m² | - |
| 1778133877 | 6.11° C | 94% | 1008.8 hPa | 0 mm | - | 0 W/m² | - |
| 1778133573 | 6.11° C | 94% | 1008.9 hPa | 0 mm | - | 0 W/m² | - |
| 1778133269 | 6.11° C | 95% | 1009 hPa | 0 mm | - | 0 W/m² | - |
| 1778132966 | 6.11° C | 95% | 1008.9 hPa | 0 mm | - | 0 W/m² | - |
| 1778132662 | 6.11° C | 97% | 1009.1 hPa | 0 mm | - | 0 W/m² | - |
| 1778132359 | 6.11° C | 97% | 1008.9 hPa | 0 mm | - | 0 W/m² | - |
| 1778132057 | 6.11° C | 97% | 1009 hPa | 0 mm | - | 0 W/m² | - |
| 1778131755 | 6.11° C | 97% | 1009.1 hPa | 0 mm | - | 0 W/m² | - |
| 1778131452 | 6.11° C | 97% | 1008.9 hPa | 0 mm | - | 0 W/m² | - |
| 1778131149 | 6.11° C | 97% | 1009.2 hPa | 0 mm | - | 0 W/m² | - |
| 1778130847 | 6.11° C | 97% | 1009.2 hPa | 0 mm | - | 0 W/m² | - |
| 1778130543 | 6.11° C | 96% | 1009.3 hPa | 0 mm | - | 0 W/m² | - |
* Rain latest hour (hover to see other rain measurements)
** Current wind speed in m/s (hover to see current wind gust speed)